Location: Ebenezer
(18.2167°N, 63.0667°W)
Time: 02:38:24
(UTC+00:00)

CSL-04 Debris - Pass Details

Date: 26 January 2020
Orbit: 828 x 848 km, 99.0° (Epoch: 26 February)

Event Time Altitude Azimuth Distance (km) Brightness Sun altitude
Rises 22:47:01 0° 156° (SSE) 3,355 7.2 -10.8°
Reaches altitude 10° 22:49:25 10° 151° (SSE) 2,422 6.5 -11.3°
Maximum altitude 22:54:37 53° 75° (ENE) 1,004 4.2 -12.5°
Drops below altitude 10° 22:59:50 10° 360° (N) 2,430 6.4 -13.7°
Sets 23:02:14 0° 355° (N) 3,366 7.2 -14.3°
